Regional Weather Roundup
Issued by NWS

Home | Current Version | Previous Version | Graphics & Text | Print | Product List | Glossary On
Versions: 1 2 3 4 5 6 7 8 9 10 11 12 13 14 15 16 17 18 19 20 21 22 23 24 25 26 27 28 29 30 31 32 33 34 35 36 37 38 39 40 41 42 43 44 45 46 47 48 49 50
000
ASUS43 KLSX 011859
RWRMO

WEATHER SUMMARY FOR MISSOURI
NATIONAL WEATHER SERVICE SPRINGFIELD MO
200 PM CDT MON JUN 01 2015

NOTE: "FAIR" INDICATES FEW OR NO CLOUDS BELOW 12,000 FEET WITH NO
       SIGNIFICANT WEATHER AND/OR OBSTRUCTIONS TO VISIBILITY.
       CURRENT SKY AND/OR WEATHER CONDITIONS ARE NOT AVAILABLE FOR
       CHILLICOTHE AND FARMINGTON.

MOZ001>031-035>038-043-044-053-054-012000-
...NORTHERN AND WESTERN MISSOURI...

CITY           SKY/WX    TMP DP  RH WIND       PRES   REMARKS
KANSAS CTY INT CLOUDY    63  55  75 SE7       30.17F
KANSAS C DTWN  CLOUDY    63  53  70 E6        30.16F
LEE`S SUMMIT   CLOUDY    62  54  74 NE7       30.18S
ST JOSEPH      CLOUDY    68  53  58 VRB7      30.16F
CHILLICOTHE      N/A     68  55  63 VRB3      30.17F
KIRKSVILLE     CLOUDY    63  55  75 E7        30.18F

$$
MOZ066>068-077>081-088>096-101>105-012000-
...SOUTHWEST MISSOURI...

CITY           SKY/WX    TMP DP  RH WIND       PRES   REMARKS
SPRINGFIELD    CLOUDY    68  56  65 NE7       30.13F
JOPLIN         PTSUNNY   71  58  63 VRB6      30.13F

$$
MOZ032>034-039>042-045>050-055>058-069>072-012000-
...CENTRAL MISSOURI...

CITY           SKY/WX    TMP DP  RH WIND       PRES   REMARKS
COLUMBIA       CLOUDY    63  54  72 NE8       30.16F
JEFFERSON CITY CLOUDY    61  53  75 E3        30.17F
ROLLA          CLOUDY    58  54  86 VRB6      30.15F
SEDALIA        CLOUDY    62  54  74 NE3       30.18F
OSAGE BEACH    CLOUDY    61  54  77 NE3       30.17S

$$
MOZ051-052-059>065-012000-
...EAST CENTRAL MISSOURI...

CITY           SKY/WX    TMP DP  RH WIND       PRES   REMARKS
ST LOUIS INTL  CLOUDY    64  54  69 NE8       30.16S
SPIRIT OF STL  CLOUDY    63  55  75 NE5       30.15S
ST CHARLES     CLOUDY    63  55  75 NE9       30.15F

$$
MOZ072>076-082>087-097>100-106>115-012000-
...SOUTH CENTRAL AND SOUTHEAST MISSOURI...

CITY           SKY/WX    TMP DP  RH WIND       PRES   REMARKS
CAPE GIRARDEAU CLOUDY    65  59  81 N5        30.12F
FARMINGTON     CLOUDY    59  55  88 NE7       30.18S
POPLAR BLUFF   CLOUDY    65  57  75 N5        30.11F
WEST PLAINS    CLOUDY    64  56  75 NE6       30.15S

$$



USA.gov is the U.S. government's official web portal to all federal, state and local government web resources and services.